N6GIW Weather Reports


Display with metric or nautical units.
time (UTC)temp
F
wind
direction
speed
MPH
gust
MPH
rain 1hr
in
rain 24hr
in
rain mn
in
humidity
%
barometer
mb
20260904080504 68 235 0.0 2.0 0.00 0.00 0.00 39 1019.4
20260904080004 68 235 0.0 0.0 0.00 0.00 0.00 40 1019.4
20260904075504 69 235 0.0 2.0 0.00 0.00 0.00 40 1019.5
20260904074504 70 225 2.0 5.0 0.00 0.00 0.00 40 1019.6
20260904074004 71 240 1.0 3.0 0.00 0.00 0.00 38 1019.7
20260904072504 70 295 5.0 8.0 0.00 0.00 0.00 39 1019.5
20260904071504 68 305 0.0 2.0 0.00 0.00 0.00 41 1019.3
20260904070504 68 200 0.0 1.0 0.00 0.00 0.00 38 1019.2
20260904070004 69 180 0.0 3.0 0.00 0.00 0.00 38 1019.2
20260904065505 69 170 0.0 3.0 0.00 0.00 0.00 38 1019.2
20260904064503 69 161 2.0 5.0 0.00 0.00 0.00 38 1019.2
20260904064004 68 186 0.0 2.0 0.00 0.00 0.00 39 1019.2
20260904063003 69 243 0.0 0.0 0.00 0.00 0.00 38 1019.3
20260904062504 70 243 0.0 0.0 0.00 0.00 0.00 37 1019.2
20260904062004 70 243 0.0 0.0 0.00 0.00 0.00 37 1019.3
20260904061504 71 243 0.0 0.0 0.00 0.00 0.00 37 1019.2
20260904061004 71 243 0.0 3.0 0.00 0.00 0.00 36 1019.3
20260904060504 72 206 7.0 12.0 0.00 0.00 0.00 37 1019.2
20260904060004 72 178 8.0 12.0 0.00 0.00 0.00 37 1019.3
20260904055504 72 190 6.0 10.0 0.00 0.00 0.00 36 1019.3
20260904054003 71 166 8.0 12.0 0.00 0.00 0.00 36 1019.3
20260904053504 71 188 5.0 8.0 0.00 0.00 0.00 36 1019.3
20260904053005 71 193 4.0 7.0 0.00 0.00 0.00 36 1019.3
20260904052504 71 192 6.0 8.0 0.00 0.00 0.00 36 1019.2
20260904052004 72 199 6.0 7.0 0.00 0.00 0.00 36 1019.5
20260904051504 72 208 3.0 7.0 0.00 0.00 0.00 35 1019.5
20260904051004 71 190 5.0 8.0 0.00 0.00 0.00 36 1019.5
20260904050504 72 186 0.0 1.0 0.00 0.00 0.00 35 1019.5
20260904050004 72 186 0.0 1.0 0.00 0.00 0.00 35 1019.5
20260904045504 73 186 2.0 7.0 0.00 0.00 0.00 35 1019.5
20260904044504 74 183 5.0 8.0 0.00 0.00 0.00 35 1019.5
20260904043504 74 248 1.0 8.0 0.00 0.00 0.00 35 1019.5
20260904043004 74 255 2.0 5.0 0.00 0.00 0.00 35 1019.5
20260904042504 74 251 3.0 8.0 0.00 0.00 0.00 35 1019.5
20260904042004 74 231 3.0 6.0 0.00 0.00 0.00 35 1019.5
20260904041504 74 265 2.0 6.0 0.00 0.00 0.00 35 1019.5
20260904041006 75 255 2.0 8.0 0.00 0.00 0.00 34 1019.5
20260904040504 75 253 1.0 3.0 0.00 0.00 0.00 34 1019.4
20260904040004 75 267 2.0 6.0 0.00 0.00 0.00 34 1019.4
20260904035505 76 286 4.0 8.0 0.00 0.00 0.00 34 1019.4
20260904035004 76 291 3.0 9.0 0.00 0.00 0.00 34 1019.2
20260904034504 75 291 6.0 10.0 0.00 0.00 0.00 33 1019.2
20260904034004 74 270 2.0 6.0 0.00 0.00 0.00 36 1019.1
20260904033504 74 273 3.0 8.0 0.00 0.00 0.00 36 1019.1
20260904033004 75 267 4.0 7.0 0.00 0.00 0.00 36 1019.0
20260904032004 75 235 5.0 8.0 0.00 0.00 0.00 36 1019.0
20260904030503 76 222 7.0 13.0 0.00 0.00 0.00 34 1018.8
20260904025005 76 229 9.0 12.0 0.00 0.00 0.00 34 1018.9
20260904024504 76 236 5.0 12.0 0.00 0.00 0.00 34 1019.0
20260904024005 77 237 5.0 12.0 0.00 0.00 0.00 33 1019.0
20260904023505 77 236 6.0 12.0 0.00 0.00 0.00 32 1018.9
20260904023004 78 216 6.0 12.0 0.00 0.00 0.00 30 1018.8
20260904022504 78 206 4.0 7.0 0.00 0.00 0.00 30 1018.8
20260904022005 78 223 5.0 9.0 0.00 0.00 0.00 31 1018.9
20260904021504 78 242 2.0 6.0 0.00 0.00 0.00 31 1018.9
20260904021004 79 270 4.0 12.0 0.00 0.00 0.00 30 1019.0
20260904020504 79 224 6.0 12.0 0.00 0.00 0.00 30 1018.9
20260904020005 80 238 6.0 12.0 0.00 0.00 0.00 28 1019.0
20260904015504 80 210 8.0 12.0 0.00 0.00 0.00 27 1018.9
20260904015005 80 208 7.0 12.0 0.00 0.00 0.00 28 1018.9
20260904014504 81 218 7.0 13.0 0.00 0.00 0.00 27 1018.8
20260904014004 81 225 10.0 16.0 0.00 0.00 0.00 27 1018.9
20260904013504 81 216 9.0 16.0 0.00 0.00 0.00 27 1018.9
20260904012503 82 217 7.0 13.0 0.00 0.00 0.00 25 1018.8
20260904011505 83 214 10.0 16.0 0.00 0.00 0.00 24 1018.7
20260904011005 84 210 7.0 12.0 0.00 0.00 0.00 24 1018.8
20260904010504 84 220 9.0 15.0 0.00 0.00 0.00 23 1018.8
20260904010004 84 216 9.0 15.0 0.00 0.00 0.00 23 1018.7
20260904005504 84 207 10.0 15.0 0.00 0.00 0.00 23 1018.7
20260904005004 85 229 8.0 17.0 0.00 0.00 0.00 23 1018.7
20260904004504 85 230 7.0 13.0 0.00 0.00 0.00 22 1018.7
20260904004004 85 229 12.0 17.0 0.00 0.00 0.00 22 1018.7
20260904003505 85 222 9.0 16.0 0.00 0.00 0.00 22 1018.8
20260904003004 85 226 10.0 16.0 0.00 0.00 0.00 21 1018.8
20260904002004 85 208 14.0 20.0 0.00 0.00 0.00 21 1019.0
20260904001504 85 217 10.0 15.0 0.00 0.00 0.00 19 1018.9
20260904001004 86 220 10.0 17.0 0.00 0.00 0.00 19 1019.0
20260904000504 85 182 10.0 17.0 0.00 0.00 0.00 19 1018.9
20260904000004 86 199 9.0 16.0 0.00 0.00 0.00 19 1019.0
20260903235004 86 201 11.0 17.0 0.00 0.00 0.00 18 1019.2
20260903234505 86 179 13.0 22.0 0.00 0.00 0.00 18 1019.3
20260903234004 86 174 12.0 25.0 0.00 0.00 0.00 19 1019.3
20260903233504 86 178 13.0 23.0 0.00 0.00 0.00 18 1019.3
20260903233004 86 203 10.0 20.0 0.00 0.00 0.00 18 1019.3
20260903232504 86 177 12.0 20.0 0.00 0.00 0.00 18 1019.3
20260903231504 87 181 10.0 16.0 0.00 0.00 0.00 18 1019.4
20260903230504 87 157 12.0 21.0 0.00 0.00 0.00 18 1019.5
20260903230003 87 179 11.0 20.0 0.00 0.00 0.00 17 1019.5
20260903225503 87 162 13.0 24.0 0.00 0.00 0.00 17 1019.5
20260903225003 87 158 15.0 20.0 0.00 0.00 0.00 17 1019.6
20260903224503 87 173 12.0 20.0 0.00 0.00 0.00 17 1019.6
20260903224003 87 199 13.0 18.0 0.00 0.00 0.00 17 1019.6
20260903223503 87 185 12.0 20.0 0.00 0.00 0.00 17 1019.7
20260903222502 87 172 12.0 22.0 0.00 0.00 0.00 17 1019.8
20260903222003 87 174 11.0 18.0 0.00 0.00 0.00 17 1019.8
20260903221502 87 205 12.0 18.0 0.00 0.00 0.00 17 1019.9
20260903221002 87 188 16.0 21.0 0.00 0.00 0.00 17 1020.0
20260903220502 87 192 11.0 20.0 0.00 0.00 0.00 17 1020.0
20260903220003 87 185 12.0 20.0 0.00 0.00 0.00 17 1020.0
20260903215502 88 198 11.0 17.0 0.00 0.00 0.00 17 1020.0
20260903215002 87 167 13.0 17.0 0.00 0.00 0.00 17 1020.1
20260903214503 87 192 13.0 20.0 0.00 0.00 0.00 17 1020.1
20260903214003 87 179 14.0 21.0 0.00 0.00 0.00 15 1020.0
20260903213503 87 155 12.0 16.0 0.00 0.00 0.00 14 1020.1
20260903212003 87 178 14.0 20.0 0.00 0.00 0.00 15 1020.1
20260903211504 87 151 13.0 17.0 0.00 0.00 0.00 14 1020.2
20260903211004 86 149 13.0 21.0 0.00 0.00 0.00 14 1020.3
20260903210502 86 148 14.0 22.0 0.00 0.00 0.00 14 1020.2
20260903210002 86 157 14.0 23.0 0.00 0.00 0.00 14 1020.2
20260903205503 86 180 13.0 23.0 0.00 0.00 0.00 14 1020.3
20260903205003 87 160 14.0 20.0 0.00 0.00 0.00 14 1020.3
20260903204503 87 172 12.0 22.0 0.00 0.00 0.00 14 1020.3
20260903204003 87 158 12.0 25.0 0.00 0.00 0.00 14 1020.2
20260903203502 86 175 12.0 20.0 0.00 0.00 0.00 13 1020.2
20260903203002 86 196 13.0 17.0 0.00 0.00 0.00 13 1020.4
20260903202003 86 164 9.0 18.0 0.00 0.00 0.00 13 1020.6
20260903200502 86 188 10.0 16.0 0.00 0.00 0.00 14 1020.8
20260903200002 86 170 10.0 16.0 0.00 0.00 0.00 14 1020.9
20260903195004 85 208 9.0 18.0 0.00 0.00 0.00 14 1020.8
20260903194518 85 159 8.0 15.0 0.00 0.00 0.00 14 1020.9
20260903194023 85 171 9.0 14.0 0.00 0.00 0.00 14 1021.0
20260903193522 85 194 7.0 15.0 0.00 0.00 0.00 14 1021.0
20260903193004 85 187 7.0 13.0 0.00 0.00 0.00 14 1021.3
20260903192503 84 184 10.0 14.0 0.00 0.00 0.00 14 1021.3
20260903191502 84 193 6.0 15.0 0.00 0.00 0.00 15 1021.4
20260903191003 84 189 8.0 16.0 0.00 0.00 0.00 15 1021.4
20260903190003 83 196 9.0 15.0 0.00 0.00 0.00 15 1021.6
20260903185503 83 170 10.0 20.0 0.00 0.00 0.00 15 1021.5
20260903185002 83 152 9.0 18.0 0.00 0.00 0.00 15 1021.7
20260903184003 83 181 6.0 12.0 0.00 0.00 0.00 16 1021.9
20260903183503 83 182 5.0 12.0 0.00 0.00 0.00 16 1021.9
20260903183003 83 181 4.0 14.0 0.00 0.00 0.00 16 1022.0
20260903182503 83 212 2.0 7.0 0.00 0.00 0.00 15 1022.1
20260903182003 83 211 6.0 12.0 0.00 0.00 0.00 16 1022.1
20260903181503 82 161 3.0 10.0 0.00 0.00 0.00 16 1022.2
20260903180503 82 264 4.0 7.0 0.00 0.00 0.00 15 1022.2
20260903180003 82 233 1.0 3.0 0.00 0.00 0.00 15 1022.1
20260903175503 82 218 3.0 7.0 0.00 0.00 0.00 15 1022.1
20260903175004 82 195 5.0 9.0 0.00 0.00 0.00 15 1022.1
20260903174004 82 134 3.0 7.0 0.00 0.00 0.00 15 1022.1
20260903173003 81 147 2.0 8.0 0.00 0.00 0.00 16 1021.9
20260903172503 80 132 3.0 12.0 0.00 0.00 0.00 16 1021.9
20260903172003 80 89 0.0 3.0 0.00 0.00 0.00 16 1021.9
20260903171504 80 95 1.0 6.0 0.00 0.00 0.00 16 1021.9
20260903171003 80 105 1.0 6.0 0.00 0.00 0.00 16 1021.9
20260903165003 78 106 1.0 3.0 0.00 0.00 0.00 17 1022.1
20260903164003 78 143 3.0 8.0 0.00 0.00 0.00 17 1022.0
20260903163003 77 135 2.0 7.0 0.00 0.00 0.00 18 1021.9
20260903162503 77 125 4.0 8.0 0.00 0.00 0.00 18 1021.9
20260903162003 77 144 4.0 9.0 0.00 0.00 0.00 19 1021.9
20260903161503 76 121 3.0 5.0 0.00 0.00 0.00 19 1022.0
20260903161003 76 128 1.0 5.0 0.00 0.00 0.00 20 1022.2
20260903160503 76 91 2.0 3.0 0.00 0.00 0.00 20 1022.2
20260903155503 75 113 2.0 6.0 0.00 0.00 0.00 20 1022.2
20260903155004 75 107 1.0 3.0 0.00 0.00 0.00 21 1022.2
20260903154003 74 138 4.0 7.0 0.00 0.00 0.00 21 1022.2
20260903153503 73 160 2.0 3.0 0.00 0.00 0.00 21 1022.2
20260903153003 73 157 2.0 5.0 0.00 0.00 0.00 23 1022.2
20260903152503 72 164 1.0 3.0 0.00 0.00 0.00 23 1022.2
20260903152003 72 163 1.0 5.0 0.00 0.00 0.00 23 1022.1
20260903151504 71 174 2.0 5.0 0.00 0.00 0.00 24 1022.0
20260903151002 71 191 3.0 5.0 0.00 0.00 0.00 24 1022.1
20260903145004 68 173 3.0 6.0 0.00 0.00 0.00 27 1022.0
20260903144003 67 195 0.0 1.0 0.00 0.00 0.00 25 1021.9
20260903143503 67 195 0.0 3.0 0.00 0.00 0.00 24 1021.8
20260903143004 66 195 0.0 3.0 0.00 0.00 0.00 26 1021.8
20260903142503 65 194 1.0 3.0 0.00 0.00 0.00 27 1021.8
20260903142003 65 194 0.0 3.0 0.00 0.00 0.00 26 1021.6
20260903141503 64 196 2.0 3.0 0.00 0.00 0.00 25 1021.6
20260903141004 64 196 2.0 3.0 0.00 0.00 0.00 25 1021.6
20260903140503 63 199 2.0 3.0 0.00 0.00 0.00 24 1021.5
20260903135503 62 229 0.0 1.0 0.00 0.00 0.00 25 1021.4
20260903135005 61 229 0.0 1.0 0.00 0.00 0.00 25 1021.4
20260903134504 61 229 1.0 3.0 0.00 0.00 0.00 25 1021.3
20260903134003 60 229 2.0 3.0 0.00 0.00 0.00 26 1021.1
20260903133003 59 240 2.0 5.0 0.00 0.00 0.00 27 1021.0
20260903132004 59 237 2.0 3.0 0.00 0.00 0.00 26 1021.2
20260903131503 59 258 4.0 8.0 0.00 0.00 0.00 26 1021.0
20260903131004 58 253 6.0 9.0 0.00 0.00 0.00 27 1021.0
20260903130503 57 257 3.0 5.0 0.00 0.00 0.00 28 1021.0
20260903130003 57 209 0.0 2.0 0.00 0.00 0.00 29 1021.0
20260903125503 58 202 0.0 1.0 0.00 0.00 0.00 29 1021.0
20260903125004 58 202 0.0 0.0 0.00 0.00 0.00 30 1021.0
20260903124503 58 202 0.0 0.0 0.00 0.00 0.00 30 1020.9
20260903124004 59 202 0.0 2.0 0.00 0.00 0.00 28 1020.9
20260903123503 60 202 0.0 1.0 0.00 0.00 0.00 28 1020.9
20260903122502 59 201 3.0 5.0 0.00 0.00 0.00 29 1020.9
20260903121503 57 232 0.0 2.0 0.00 0.00 0.00 30 1021.0
20260903121004 57 232 0.0 0.0 0.00 0.00 0.00 30 1021.0
20260903120503 57 232 0.0 0.0 0.00 0.00 0.00 30 1020.9
20260903115503 57 232 0.0 1.0 0.00 0.00 0.00 30 1020.9
20260903115003 57 234 0.0 0.0 0.00 0.00 0.00 31 1021.0
20260903114004 56 232 0.0 0.0 0.00 0.00 0.00 30 1021.1
20260903113503 56 232 0.0 0.0 0.00 0.00 0.00 30 1021.0
20260903112504 57 232 0.0 0.0 0.00 0.00 0.00 30 1021.0
20260903112003 57 232 0.0 0.0 0.00 0.00 0.00 30 1021.0
20260903111503 57 232 0.0 0.0 0.00 0.00 0.00 30 1021.0
20260903111004 57 232 0.0 1.0 0.00 0.00 0.00 31 1021.0
20260903110503 56 232 0.0 0.0 0.00 0.00 0.00 31 1020.9
20260903110003 57 232 0.0 0.0 0.00 0.00 0.00 31 1020.9
20260903105003 58 232 0.0 0.0 0.00 0.00 0.00 31 1020.9
20260903104503 59 232 0.0 1.0 0.00 0.00 0.00 32 1020.9
20260903103503 57 232 0.0 0.0 0.00 0.00 0.00 34 1020.9
20260903103003 57 232 0.0 1.0 0.00 0.00 0.00 34 1021.1
20260903102503 57 232 0.0 1.0 0.00 0.00 0.00 34 1021.1
20260903102003 57 232 0.0 2.0 0.00 0.00 0.00 32 1021.1
20260903101004 59 232 0.0 0.0 0.00 0.00 0.00 31 1021.2
20260903100503 60 232 0.0 0.0 0.00 0.00 0.00 30 1021.2
20260903095503 59 234 0.0 0.0 0.00 0.00 0.00 32 1021.3
20260903095003 59 234 0.0 0.0 0.00 0.00 0.00 33 1021.3
20260903094502 59 234 0.0 0.0 0.00 0.00 0.00 33 1021.3
20260903094003 60 234 0.0 0.0 0.00 0.00 0.00 33 1021.2
20260903093503 60 234 0.0 0.0 0.00 0.00 0.00 32 1021.3
20260903093004 61 234 0.0 2.0 0.00 0.00 0.00 32 1021.3
20260903092503 61 234 0.0 1.0 0.00 0.00 0.00 32 1021.2
20260903092003 62 234 0.0 0.0 0.00 0.00 0.00 31 1021.3
20260903091504 62 234 0.0 2.0 0.00 0.00 0.00 32 1021.3
20260903091003 62 234 0.0 2.0 0.00 0.00 0.00 31 1021.4
20260903090003 63 233 1.0 3.0 0.00 0.00 0.00 28 1021.5
20260903085503 63 232 0.0 1.0 0.00 0.00 0.00 29 1021.5
20260903084503 61 240 0.0 0.0 0.00 0.00 0.00 31 1021.6
20260903084012 61 242 0.0 3.0 0.00 0.00 0.00 31 1021.5
20260903082004 61 238 0.0 2.0 0.00 0.00 0.00 29 1021.7